Location: Baix
(44.7118°N, 4.7648°E)
Time: 02:31:12
(UTC+00:00)

ERBS - Pass Details

Date: 07 August 2020
Orbit: 413 x 420 km, 57.0° (Epoch: 25 September)

Event Time Altitude Azimuth Distance (km) Brightness Sun altitude
Rises 02:54:14 0° 305° (NW) 2,353 5.9 -15.6°
Reaches altitude 10° 02:56:25 10° 296° (WNW) 1,487 4.8 -15.3°
Maximum altitude 02:59:28 34° 229° (SW) 695 2.8 -14.9°
Drops below altitude 10° 03:02:31 10° 162° (SSE) 1,478 4.8 -14.5°
Sets 03:04:41 0° 153° (SSE) 2,337 5.9 -14.2°
